Preview of NWS' New Version of Forecast
This preview is not operational and should not be used for support decisions.

Regional Weather Roundup (RWR)

Issued by National Weather Service (NWS)

                            
000
ASUS43 KTOP 202159
RWRKS 

WEATHER ROUNDUP FOR KANSAS
NATIONAL WEATHER SERVICE GOODLAND KS
500 PM CDT SAT APR 20 2019

NOTE:  "FAIR" INDICATES FEW OR NO CLOUDS BELOW 12,000 FEET WITH NO
SIGNIFICANT WEATHER AND/OR OBSTRUCTIONS TO VISIBILITY.

KSZ001>006-013>018-027>032-041>047-202300-
NORTHWEST KANSAS
  
CITY           SKY/WX    TMP DP  RH WIND       PRES   REMARKS
GOODLAND       SUNNY     85  36  17 S22G32    29.70F                  
HAYS           SUNNY     86  42  21 S21       29.72F                  
HILL CITY      SUNNY     89  37  16 S13G25    29.70F                  
RUSSELL        SUNNY     87  38  17 S20G29    29.72F                  
$$

KSZ061>065-074>080-084>089-202300-
SOUTHWEST KANSAS
  
CITY           SKY/WX    TMP DP  RH WIND       PRES   REMARKS
DODGE CITY     SUNNY     86  41  20 S20G30    29.74F                  
GARDEN CITY    SUNNY     87  36  16 S20G25    29.71F                  
GREAT BEND     SUNNY     84  48  28 SE18G26   29.74F                  
LIBERAL        SUNNY     87  42  20 S17G26    29.73F                  
$$

KSZ066>073-081>083-090>101-202300-
SOUTHEAST KANSAS
  
CITY           SKY/WX    TMP DP  RH WIND       PRES   REMARKS
CHANUTE        SUNNY     77  42  28 S14       29.87F                  
COFFEYVILLE    SUNNY     77  44  30 S12G18    29.87F                  
HUTCHINSON     SUNNY     80  50  34 S20       29.79F                  
MEDICINE LODGE   N/A     82  51  34 S16G26    29.77F                  
NEWTON         SUNNY     79  49  34 S22G28    29.81F                  
PARSONS        SUNNY     77  44  30 S9        29.88F                  
WICHITA INTL   SUNNY     78  50  37 S22G30    29.81F                  
WICHITA JABRA  SUNNY     78  47  33 S17G28    29.82F                  
WICHITA MCCONL SUNNY     78  48  35 SE16      29.82F                  
WINFIELD       SUNNY     77  47  34 S14G28    29.85F                  
$$

KSZ007>012-019>026-033>040-048>060-102>105-202300-
NORTHEAST KANSAS
  
CITY           SKY/WX    TMP DP  RH WIND       PRES   REMARKS
CONCORDIA      SUNNY     87  41  19 S21       29.73F                  
EMPORIA        SUNNY     78  43  28 S18G30    29.82F                  
LAWRENCE       SUNNY     77  43  29 SW14G23   29.83F                  
MANHATTAN      SUNNY     84  41  21 S14G24    29.76F                  
OLATHE IND     SUNNY     74  44  34 S13G24    29.85F                  
OLATHE EXE     SUNNY     72  45  37 S9        29.85F                  
SALINA         SUNNY     82  48  30 S22G31    29.76F                  
TOPEKA BILLARD SUNNY     78  42  27 S13G24    29.81F                  
TOPEKA FORBES  SUNNY     78  43  28 S18G29    29.81F                  
$$